Regional Weather Roundup
Issued by NWS

Home | Current Version | Previous Version | Text Only | Print | Product List | Glossary Off
Versions: 1 2 3 4 5 6 7 8 9 10 11 12 13 14 15 16 17 18 19 20 21 22 23 24 25 26 27 28 29 30 31 32 33 34 35 36 37 38 39 40 41 42 43 44 45 46 47 48 49 50

000
ASUS43 KOAX 180002
RWRNE

WEATHER ROUNDUP FOR NEBRASKA
NATIONAL WEATHER SERVICE OMAHA NE
700 PM CDT TUE OCT 17 2017

NOTES: SATELLITE DATA IS BEING USED TO AUGMENT CLOUD COVER ABOVE
       12000 FEET.
       "FAIR" INDICATES FEW OR NO CLOUDS BELOW 12,000 FEET WITH NO
       SIGNIFICANT WEATHER AND/OR OBSTRUCTIONS TO VISIBILITY.


NEZ001>004-019>022-054>056-180100-
NEBRASKA PANHANDLE

CITY           SKY/WX    TMP DP  RH WIND       PRES   REMARKS
SCOTTSBLUFF    CLEAR     67  21  17 W7        29.97F
6HR MIN TEMP:  67; 6HR MAX TEMP:  79;

ALLIANCE       CLEAR     60  21  22 SW9       29.96S
6HR MIN TEMP:  60; 6HR MAX TEMP:  77;

CHADRON        CLEAR     69  18  14 W8        29.90S
6HR MIN TEMP:  67; 6HR MAX TEMP:  80;

GORDON         FAIR      65  28  25 SW6       29.92F
6HR MIN TEMP:  65; 6HR MAX TEMP:  77;

KIMBALL        CLEAR     65  19  17 W5        30.05S
SIDNEY         CLEAR     63  17  17 SW7       30.02F HAZE
6HR MIN TEMP:  63; 6HR MAX TEMP:  81;

$$

NEZ057>060-069>072-079>082-180100-
SOUTHWEST NEBRASKA

CITY           SKY/WX    TMP DP  RH WIND       PRES   REMARKS
NORTH PLATTE   CLEAR     69  31  24 S9        29.96S
6HR MIN TEMP:  69; 6HR MAX TEMP:  81;

IMPERIAL       CLEAR     66  22  18 S7        29.99F
6HR MIN TEMP:  66; 6HR MAX TEMP:  81;

LEXINGTON      CLEAR     65  37  34 S9        29.98F
MCCOOK         CLEAR     72  32  23 S6        29.99F
6HR MIN TEMP:  71; 6HR MAX TEMP:  80;

OGALLALA       CLEAR     71  24  17 SW6       29.97S
$$

NEZ005>010-023>029-035>040-094-180100-
NORTH CENTRAL NEBRASKA

CITY           SKY/WX    TMP DP  RH WIND       PRES   REMARKS
VALENTINE      CLEAR     67  28  23 SW6       29.89F
6HR MIN TEMP:  67; 6HR MAX TEMP:  84;

AINSWORTH      CLEAR     63  35  36 S8        29.92S
BROKEN BOW     CLEAR     63  43  48 CALM      29.96S
6HR MIN TEMP:  63; 6HR MAX TEMP:  77;

O`NEILL        PTCLDY    66  43  44 S7        29.93S
ORD            CLEAR     64  37  36 CALM      29.95S
6HR MIN TEMP:  63; 6HR MAX TEMP:  78;

THEDFORD       CLEAR     68  27  21 S8        29.95F
$$

NEZ041-046>049-061>064-073>077-083>087-180100-
SOUTH CENTRAL NEBRASKA

CITY           SKY/WX    TMP DP  RH WIND       PRES   REMARKS
GRAND ISLAND   CLEAR     67  42  40 S7        29.98S
6HR MIN TEMP:  67; 6HR MAX TEMP:  80;

AURORA         CLEAR     68  38  34 S5        29.98S
HASTINGS       CLEAR     69  42  37 SE6       29.99S
6HR MIN TEMP:  69; 6HR MAX TEMP:  79;

HEBRON         CLEAR     62  47  59 S5        30.00S
HOLDREGE       CLEAR     69  37  31 S6        29.99S
KEARNEY        CLEAR     69  37  30 S8        29.98S
YORK           CLEAR     68  43  40 S9        29.98S
$$

NEZ011>018-030>034-042>045-180100-
NORTHEAST NEBRASKA

CITY           SKY/WX    TMP DP  RH WIND       PRES   REMARKS
NORFOLK        CLEAR     65  42  43 S10       29.95S
6HR MIN TEMP:  65; 6HR MAX TEMP:  79;

ALBION         PTCLDY    67  41  39 CALM      29.96S
BLAIR          CLEAR     64  47  53 S3        29.99F
COLUMBUS       CLEAR     66  44  45 SE8       29.97F
FREMONT        CLEAR     62  46  54 SE5       29.99S
TEKAMAH        CLEAR     59  44  57 SE7       29.98S
6HR MIN TEMP:  59; 6HR MAX TEMP:  73;

WAYNE          CLEAR     64  40  40 SE10      29.95S
$$

NEZ050>053-065>068-078-088>093-180100-
SOUTHEAST NEBRASKA

CITY           SKY/WX    TMP DP  RH WIND       PRES   REMARKS
LINCOLN        CLEAR     64  47  53 S7        30.00S
6HR MIN TEMP:  63; 6HR MAX TEMP:  73;

OMAHA EPPLEY   PTCLDY    63  46  54 SE7       29.99F
6HR MIN TEMP:  62; 6HR MAX TEMP:  72;

BEATRICE       CLEAR     66  48  52 S3        30.00F
FALLS CITY     CLEAR     66  46  48 S7        30.02R
6HR MIN TEMP:  65; 6HR MAX TEMP:  74;

NEBRASKA CITY  CLEAR     64  47  54 S3        30.01S
PLATTSMOUTH    CLEAR     63  46  54 S5        30.01S
$$

NEZ044-045-051>053-067-180100-
OMAHA AREA

CITY           SKY/WX    TMP DP  RH WIND       PRES   REMARKS
OMAHA EPPLEY   PTCLDY    63  46  54 SE7       29.99F
6HR MIN TEMP:  62; 6HR MAX TEMP:  72;

BLAIR          CLEAR     64  47  53 S3        29.99F
FREMONT        CLEAR     62  46  54 SE5       29.99S
MILLARD        CLEAR     64  50  61 CALM      29.99F
OFFUTT AFB     CLEAR     65  47  51 SE3       29.99S
PLATTSMOUTH    CLEAR     63  46  54 S5        30.01S
WAHOO          FAIR      61  44  53 SE6       29.99S
$$




USA.gov is the U.S. government's official web portal to all federal, state and local government web resources and services.